GW5381 Weather Reports


Display with metric or nautical units.
time (UTC)temp
F
wind
direction
speed
MPH
gust
MPH
rain 1hr
in
rain 24hr
in
rain mn
in
humidity
%
barometer
mb
20260508205927 73 124 1.0 6.0 0.00 0.00 0.00 35 1010.8
20260508205424 73 76 1.0 6.0 0.00 0.00 0.00 36 1011.1
20260508204920 72 117 1.0 4.0 0.00 0.00 0.00 38 1011.0
20260508204418 70 130 1.0 6.0 0.00 0.00 0.00 40 1011.0
20260508203913 69 137 1.0 4.0 0.00 0.00 0.00 38 1011.2
20260508203410 69 110 1.0 1.0 0.00 0.00 0.00 41 1011.1
20260508202906 70 121 1.0 10.0 0.00 0.00 0.00 37 1011.1
20260508202403 70 90 2.0 2.0 0.00 0.00 0.00 39 1011.1
20260508201900 70 167 1.0 4.0 0.00 0.00 0.00 37 1011.4
20260508201356 70 246 1.0 4.0 0.00 0.00 0.00 39 1011.5
20260508200853 69 108 0.0 2.0 0.00 0.00 0.00 41 1011.5
20260508200350 69 107 2.0 7.0 0.00 0.00 0.00 39 1011.5
20260508195845 69 119 0.0 6.0 0.00 0.00 0.00 39 1011.6
20260508195343 69 290 3.0 3.0 0.00 0.00 0.00 38 1011.4
20260508194839 70 165 0.0 3.0 0.00 0.00 0.00 37 1011.5
20260508194336 71 249 1.0 7.0 0.00 0.00 0.00 38 1011.7
20260508193833 73 45 2.0 4.0 0.00 0.00 0.00 36 1011.5
20260508193330 73 288 3.0 7.0 0.00 0.00 0.00 36 1011.6
20260508192826 72 125 0.0 1.0 0.00 0.00 0.00 36 1011.6
20260508192323 71 122 1.0 3.0 0.00 0.00 0.00 37 1011.8
20260508191820 73 85 2.0 4.0 0.00 0.00 0.00 35 1011.7
20260508191317 74 116 1.0 4.0 0.00 0.00 0.00 33 1011.9
20260508190815 72 80 1.0 4.0 0.00 0.00 0.00 36 1012.0
20260508190311 73 235 2.0 4.0 0.00 0.00 0.00 33 1011.9
20260508185807 73 302 3.0 7.0 0.00 0.00 0.00 36 1012.1
20260508185306 72 275 3.0 4.0 0.00 0.00 0.00 39 1012.1
20260508184802 73 260 3.0 6.0 0.00 0.00 0.00 36 1012.3
20260508184259 73 168 4.0 8.0 0.00 0.00 0.00 35 1012.3
20260508183756 72 86 2.0 2.0 0.00 0.00 0.00 38 1012.5
20260508183252 72 162 2.0 6.0 0.00 0.00 0.00 36 1012.5
20260508182748 71 142 2.0 6.0 0.00 0.00 0.00 37 1012.5
20260508182245 72 13 1.0 6.0 0.00 0.00 0.00 40 1012.6
20260508181741 71 242 4.0 9.0 0.00 0.00 0.00 36 1012.8
20260508181238 72 188 2.0 8.0 0.00 0.00 0.00 36 1012.8
20260508180734 71 276 3.0 7.0 0.00 0.00 0.00 42 1013.0
20260508180231 72 180 1.0 3.0 0.00 0.00 0.00 38 1013.0
20260508175728 71 114 2.0 4.0 0.00 0.00 0.00 39 1012.9
20260508175225 71 109 1.0 3.0 0.00 0.00 0.00 45 1013.2
20260508174723 70 154 2.0 7.0 0.00 0.00 0.00 39 1013.2
20260508174220 70 135 0.0 1.0 0.00 0.00 0.00 45 1013.0
20260508173716 70 125 2.0 2.0 0.00 0.00 0.00 37 1013.3
20260508173212 70 254 3.0 7.0 0.00 0.00 0.00 37 1013.4
20260508172709 70 115 2.0 7.0 0.00 0.00 0.00 38 1013.4
20260508172206 69 289 3.0 6.0 0.00 0.00 0.00 38 1013.9
20260508171702 69 128 2.0 4.0 0.00 0.00 0.00 40 1014.1
20260508171159 70 3 4.0 6.0 0.00 0.00 0.00 37 1014.0
20260508170656 69 237 6.0 8.0 0.00 0.00 0.00 39 1014.2
20260508170153 68 108 0.0 7.0 0.00 0.00 0.00 41 1014.3
20260508165650 67 106 0.0 3.0 0.00 0.00 0.00 43 1014.2
20260508165147 67 97 4.0 15.0 0.00 0.00 0.00 40 1014.4
20260508164644 67 6 2.0 7.0 0.00 0.00 0.00 41 1014.5
20260508164140 67 14 5.0 8.0 0.00 0.00 0.00 41 1014.7
20260508163638 67 251 2.0 3.0 0.00 0.00 0.00 43 1014.7
20260508163135 67 271 5.0 8.0 0.00 0.00 0.00 41 1014.9
20260508162631 66 240 2.0 7.0 0.00 0.00 0.00 43 1014.9
20260508162129 66 41 4.0 9.0 0.00 0.00 0.00 44 1014.7
20260508161625 66 278 4.0 8.0 0.00 0.00 0.00 42 1014.8
20260508161123 66 156 3.0 9.0 0.00 0.00 0.00 43 1014.9
20260508160621 65 105 3.0 6.0 0.00 0.00 0.00 45 1015.0
20260508160119 65 132 1.0 3.0 0.00 0.00 0.00 46 1015.0
20260508155615 65 58 3.0 6.0 0.00 0.00 0.00 45 1015.2
20260508155112 65 15 1.0 11.0 0.00 0.00 0.00 44 1015.3
20260508154609 64 133 1.0 7.0 0.00 0.00 0.00 45 1015.3
20260508154106 64 266 1.0 4.0 0.00 0.00 0.00 48 1015.4
20260508153603 64 113 2.0 7.0 0.00 0.00 0.00 44 1015.4
20260508153059 64 110 1.0 6.0 0.00 0.00 0.00 47 1015.4
20260508152557 63 103 2.0 4.0 0.00 0.00 0.00 47 1015.6
20260508152057 63 106 1.0 3.0 0.00 0.00 0.00 48 1015.5
20260508151555 63 109 1.0 10.0 0.00 0.00 0.00 47 1015.7
20260508151052 62 86 1.0 4.0 0.00 0.00 0.00 49 1015.7
20260508150549 62 110 0.0 4.0 0.00 0.00 0.00 48 1015.6
20260508150044 62 105 3.0 6.0 0.00 0.00 0.00 46 1015.7
20260508145541 62 126 2.0 7.0 0.00 0.00 0.00 50 1015.7
20260508145038 62 93 1.0 3.0 0.00 0.00 0.00 47 1015.6
20260508144536 61 111 1.0 4.0 0.00 0.00 0.00 48 1015.7
20260508144033 61 217 1.0 6.0 0.00 0.00 0.00 47 1015.7
20260508143530 61 102 1.0 9.0 0.00 0.00 0.00 46 1015.8
20260508143026 60 107 1.0 6.0 0.00 0.00 0.00 46 1015.6
20260508142524 60 123 2.0 10.0 0.00 0.00 0.00 47 1015.9
20260508142020 60 106 2.0 6.0 0.00 0.00 0.00 47 1015.9
20260508141517 59 113 1.0 3.0 0.00 0.00 0.00 47 1015.9
20260508141015 59 78 1.0 7.0 0.00 0.00 0.00 47 1016.0
20260508140512 59 154 2.0 7.0 0.00 0.00 0.00 47 1015.9
20260508140008 59 131 1.0 4.0 0.00 0.00 0.00 49 1016.0
20260508135504 58 126 1.0 2.0 0.00 0.00 0.00 48 1016.0
20260508135000 58 142 1.0 2.0 0.00 0.00 0.00 50 1016.1
20260508134457 57 111 1.0 6.0 0.00 0.00 0.00 49 1016.0
20260508133953 57 308 2.0 6.0 0.00 0.00 0.00 49 1016.0
20260508133451 56 122 0.0 2.0 0.00 0.00 0.00 51 1016.2
20260508132947 56 155 3.0 6.0 0.00 0.00 0.00 50 1016.1
20260508132446 56 110 0.0 4.0 0.00 0.00 0.00 50 1016.2
20260508131942 55 144 2.0 6.0 0.00 0.00 0.00 52 1016.1
20260508131437 55 129 1.0 6.0 0.00 0.00 0.00 52 1016.2
20260508130934 54 96 0.0 7.0 0.00 0.00 0.00 53 1016.1
20260508130432 54 126 0.0 2.0 0.00 0.00 0.00 55 1016.1
20260508125927 53 174 2.0 3.0 0.00 0.00 0.00 54 1016.0
20260508125423 53 116 0.0 1.0 0.00 0.00 0.00 56 1016.1
20260508124921 53 128 1.0 2.0 0.00 0.00 0.00 57 1016.1
20260508124419 52 180 1.0 2.0 0.00 0.00 0.00 57 1016.2
20260508123917 52 159 1.0 3.0 0.00 0.00 0.00 59 1015.9
20260508123415 51 194 1.0 1.0 0.00 0.00 0.00 60 1016.0
20260508122911 51 146 1.0 2.0 0.00 0.00 0.00 60 1015.9
20260508122408 50 127 0.0 1.0 0.00 0.00 0.00 61 1015.8
20260508121905 49 123 0.0 1.0 0.00 0.00 0.00 62 1015.8
20260508121404 49 151 0.0 1.0 0.00 0.00 0.00 65 1015.7
20260508120901 49 125 0.0 1.0 0.00 0.00 0.00 64 1015.8
20260508120358 48 128 0.0 3.0 0.00 0.00 0.00 64 1015.9
20260508115856 48 144 1.0 2.0 0.00 0.00 0.00 65 1015.8
20260508115353 48 130 0.0 0.0 0.00 0.00 0.00 67 1015.8
20260508114849 47 152 1.0 1.0 0.00 0.00 0.00 65 1015.8
20260508114346 47 128 0.0 1.0 0.00 0.00 0.00 67 1015.8
20260508113843 47 116 0.0 1.0 0.00 0.00 0.00 67 1015.5
20260508113341 47 146 1.0 2.0 0.00 0.00 0.00 67 1015.6
20260508112837 46 111 0.0 2.0 0.00 0.00 0.00 68 1015.4
20260508112335 46 123 0.0 0.0 0.00 0.00 0.00 70 1015.6
20260508111831 46 121 0.0 1.0 0.00 0.00 0.00 69 1015.5
20260508111328 46 121 0.0 1.0 0.00 0.00 0.00 67 1015.5
20260508110826 46 132 0.0 1.0 0.00 0.00 0.00 68 1015.4
20260508110323 46 116 0.0 0.0 0.00 0.00 0.00 67 1015.3
20260508105823 46 133 0.0 1.0 0.00 0.00 0.00 67 1015.5
20260508105320 47 132 0.0 0.0 0.00 0.00 0.00 68 1015.3
20260508104817 47 132 0.0 0.0 0.00 0.00 0.00 67 1015.4
20260508104313 47 133 0.0 1.0 0.00 0.00 0.00 67 1015.2
20260508103811 47 135 1.0 1.0 0.00 0.00 0.00 66 1015.3
20260508103307 47 123 0.0 1.0 0.00 0.00 0.00 66 1015.3
20260508102805 47 145 1.0 2.0 0.00 0.00 0.00 66 1015.4
20260508102306 47 141 1.0 1.0 0.00 0.00 0.00 65 1015.3
20260508101800 47 132 0.0 0.0 0.00 0.00 0.00 65 1015.6
20260508101257 47 152 1.0 2.0 0.00 0.00 0.00 66 1015.3
20260508100755 47 130 0.0 1.0 0.00 0.00 0.00 66 1015.5
20260508100253 47 130 0.0 0.0 0.00 0.00 0.00 67 1015.4
20260508095749 47 130 0.0 1.0 0.00 0.00 0.00 66 1015.3
20260508095246 47 137 0.0 0.0 0.00 0.00 0.00 67 1015.2
20260508094743 47 137 0.0 1.0 0.00 0.00 0.00 67 1015.4
20260508094240 47 137 0.0 1.0 0.00 0.00 0.00 66 1015.3
20260508093737 47 136 0.0 1.0 0.00 0.00 0.00 66 1015.6
20260508093235 47 135 0.0 0.0 0.00 0.00 0.00 66 1015.4
20260508092732 47 134 0.0 0.0 0.00 0.00 0.00 66 1015.1
20260508092230 46 134 1.0 2.0 0.00 0.00 0.00 66 1015.2
20260508091728 46 130 0.0 0.0 0.00 0.00 0.00 69 1015.3
20260508091224 46 130 0.0 1.0 0.00 0.00 0.00 68 1015.4
20260508090722 46 130 0.0 0.0 0.00 0.00 0.00 69 1015.3
20260508090219 46 130 0.0 0.0 0.00 0.00 0.00 69 1015.2
20260508085715 46 130 0.0 0.0 0.00 0.00 0.00 69 1015.2
20260508085213 45 130 0.0 0.0 0.00 0.00 0.00 71 1015.2
20260508084708 45 130 0.0 0.0 0.00 0.00 0.00 69 1015.2
20260508084206 45 130 0.0 0.0 0.00 0.00 0.00 68 1015.2
20260508083704 45 130 0.0 0.0 0.00 0.00 0.00 70 1015.3
20260508083201 46 130 0.0 0.0 0.00 0.00 0.00 68 1015.4
20260508082655 46 130 0.0 0.0 0.00 0.00 0.00 69 1015.2
20260508082153 46 130 0.0 0.0 0.00 0.00 0.00 69 1015.1
20260508081651 46 130 0.0 0.0 0.00 0.00 0.00 65 1015.1
20260508081147 46 130 0.0 0.0 0.00 0.00 0.00 65 1015.0
20260508080645 47 130 0.0 0.0 0.00 0.00 0.00 65 1015.1
20260508080143 47 136 0.0 1.0 0.00 0.00 0.00 64 1015.1
20260508075639 47 128 0.0 0.0 0.00 0.00 0.00 64 1015.3
20260508075136 48 130 0.0 1.0 0.00 0.00 0.00 64 1015.1
20260508074633 48 127 0.0 1.0 0.00 0.00 0.00 63 1015.0
20260508074130 48 125 0.0 1.0 0.00 0.00 0.00 64 1015.1
20260508073627 48 122 0.0 0.0 0.00 0.00 0.00 62 1015.1
20260508073126 48 120 0.0 1.0 0.00 0.00 0.00 61 1015.1
20260508072620 49 122 0.0 0.0 0.00 0.00 0.00 59 1014.9
20260508072118 49 110 1.0 1.0 0.00 0.00 0.00 60 1015.3
20260508071616 49 104 1.0 2.0 0.00 0.00 0.00 58 1015.1
20260508071114 49 116 0.0 0.0 0.00 0.00 0.00 58 1015.0
20260508070611 49 124 0.0 1.0 0.00 0.00 0.00 58 1015.2
20260508070109 49 130 0.0 1.0 0.00 0.00 0.00 57 1015.0
20260508065606 49 108 1.0 2.0 0.00 0.00 0.00 59 1015.3
20260508065104 49 107 1.0 2.0 0.00 0.00 0.00 59 1015.5
20260508064601 49 110 0.0 1.0 0.00 0.00 0.00 59 1015.5
20260508064059 49 110 0.0 2.0 0.00 0.00 0.00 57 1015.4
20260508063556 49 109 0.0 1.0 0.00 0.00 0.00 58 1015.4
20260508063055 50 123 0.0 1.0 0.00 0.00 0.00 57 1015.8
20260508062552 50 120 0.0 0.0 0.00 0.00 0.00 55 1015.7
20260508062048 50 146 0.0 2.0 0.00 0.00 0.00 55 1015.8
20260508061546 50 110 1.0 2.0 0.00 0.00 0.00 55 1015.9
20260508061043 50 113 0.0 4.0 0.00 0.00 0.00 54 1015.9
20260508060539 50 143 1.0 1.0 0.00 0.00 0.00 53 1015.8
20260508060037 51 131 0.0 1.0 0.00 0.00 0.00 52 1015.8
20260508055532 50 152 0.0 2.0 0.00 0.00 0.00 53 1015.9
20260508055030 50 139 0.0 2.0 0.00 0.00 0.00 53 1015.8
20260508054526 50 136 0.0 2.0 0.00 0.00 0.00 53 1015.8
20260508054023 50 103 1.0 1.0 0.00 0.00 0.00 53 1015.9
20260508053520 50 116 0.0 3.0 0.00 0.00 0.00 53 1015.8
20260508053019 50 103 0.0 1.0 0.00 0.00 0.00 56 1015.8
20260508052515 51 123 0.0 1.0 0.00 0.00 0.00 53 1015.8
20260508052012 51 135 1.0 2.0 0.00 0.00 0.00 51 1015.8
20260508051508 50 110 0.0 1.0 0.00 0.00 0.00 52 1015.7
20260508051003 50 125 0.0 1.0 0.00 0.00 0.00 53 1015.6
20260508050500 50 119 0.0 0.0 0.00 0.00 0.00 54 1015.6
20260508045956 50 127 0.0 1.0 0.00 0.00 0.00 54 1015.6
20260508045454 50 143 0.0 1.0 0.00 0.00 0.00 54 1015.5
20260508044951 49 132 0.0 1.0 0.00 0.00 0.00 56 1015.7
20260508044448 49 131 0.0 0.0 0.00 0.00 0.00 57 1015.7
20260508043943 49 124 0.0 0.0 0.00 0.00 0.00 57 1015.8
20260508043441 50 118 0.0 0.0 0.00 0.00 0.00 57 1015.5
20260508042937 50 127 0.0 1.0 0.00 0.00 0.00 55 1015.7
20260508042436 50 111 0.0 1.0 0.00 0.00 0.00 54 1015.6
20260508041932 50 143 0.0 1.0 0.00 0.00 0.00 54 1015.5
20260508041428 50 144 0.0 1.0 0.00 0.00 0.00 54 1015.6
20260508040925 50 144 0.0 1.0 0.00 0.00 0.00 54 1015.4
20260508040423 51 133 0.0 1.0 0.00 0.00 0.00 55 1015.4
20260508035920 51 117 0.0 1.0 0.00 0.00 0.00 53 1015.7
20260508035417 51 139 0.0 1.0 0.00 0.00 0.00 54 1015.6
20260508034914 50 138 1.0 1.0 0.00 0.00 0.00 53 1015.7
20260508034411 50 140 1.0 1.0 0.00 0.00 0.00 54 1015.8
20260508033907 51 135 0.0 1.0 0.00 0.00 0.00 54 1015.6
20260508033406 51 135 0.0 0.0 0.00 0.00 0.00 53 1015.7
20260508032903 51 135 0.0 0.0 0.00 0.00 0.00 52 1015.8
20260508032401 51 135 0.0 1.0 0.00 0.00 0.00 53 1015.5
20260508031857 51 135 0.0 1.0 0.00 0.00 0.00 52 1015.7
20260508031354 51 129 0.0 1.0 0.00 0.00 0.00 52 1015.7
20260508030850 51 129 0.0 1.0 0.00 0.00 0.00 51 1015.8
20260508030347 52 128 0.0 1.0 0.00 0.00 0.00 51 1015.8
20260508025844 52 137 0.0 1.0 0.00 0.00 0.00 51 1015.6
20260508025341 52 117 0.0 0.0 0.00 0.00 0.00 51 1015.5
20260508024838 52 117 0.0 0.0 0.00 0.00 0.00 52 1015.7
20260508024334 51 117 0.0 1.0 0.00 0.00 0.00 52 1015.7
20260508023831 51 117 0.0 0.0 0.00 0.00 0.00 54 1015.7
20260508023328 52 116 0.0 0.0 0.00 0.00 0.00 53 1015.8
20260508022825 52 117 0.0 1.0 0.00 0.00 0.00 50 1015.3
20260508022321 52 117 0.0 0.0 0.00 0.00 0.00 51 1015.4
20260508021818 51 117 0.0 1.0 0.00 0.00 0.00 52 1015.6
20260508021313 51 117 0.0 1.0 0.00 0.00 0.00 52 1015.6
20260508020810 51 117 0.0 0.0 0.00 0.00 0.00 53 1015.7
20260508020308 51 117 0.0 1.0 0.00 0.00 0.00 52 1015.8
20260508015804 51 117 0.0 0.0 0.00 0.00 0.00 53 1015.8
20260508015305 51 117 0.0 0.0 0.00 0.00 0.00 53 1015.8
20260508014759 51 117 0.0 0.0 0.00 0.00 0.00 53 1015.5
20260508014256 51 117 0.0 0.0 0.00 0.00 0.00 52 1015.6
20260508013751 51 117 0.0 0.0 0.00 0.00 0.00 52 1015.5
20260508013248 51 117 0.0 0.0 0.00 0.00 0.00 51 1015.6
20260508012745 52 117 0.0 0.0 0.00 0.00 0.00 51 1015.5
20260508012242 52 117 0.0 0.0 0.00 0.00 0.00 50 1015.4
20260508011741 52 117 0.0 0.0 0.00 0.00 0.00 51 1015.4
20260508011237 52 117 0.0 0.0 0.00 0.00 0.00 51 1015.3
20260508010734 52 117 0.0 0.0 0.00 0.00 0.00 51 1015.3
20260508010233 53 117 0.0 0.0 0.00 0.00 0.00 50 1015.2
20260508005729 53 117 0.0 0.0 0.00 0.00 0.00 48 1015.2
20260508005226 54 117 0.0 0.0 0.00 0.00 0.00 50 1015.2
20260508004721 55 117 0.0 0.0 0.00 0.00 0.00 47 1015.3
20260508004218 55 116 0.0 1.0 0.00 0.00 0.00 45 1015.4
20260508003715 56 114 0.0 0.0 0.00 0.00 0.00 43 1015.3
20260508003212 56 110 0.0 1.0 0.00 0.00 0.00 41 1015.2
20260508002703 57 130 0.0 2.0 0.00 0.00 0.00 41 1015.2
20260508002201 57 108 0.0 0.0 0.00 0.00 0.00 40 1015.0
20260508001655 58 109 1.0 2.0 0.00 0.00 0.00 39 1015.0
20260508001152 60 120 0.0 0.0 0.00 0.00 0.00 39 1014.9
20260508000648 60 114 0.0 1.0 0.00 0.00 0.00 37 1014.8
20260508000145 61 123 1.0 1.0 0.00 0.00 0.00 36 1014.9
20260507235642 63 106 0.0 3.0 0.00 0.00 0.00 34 1015.0
20260507235140 64 132 1.0 2.0 0.00 0.00 0.00 32 1014.8
20260507234636 63 118 0.0 0.0 0.00 0.00 0.00 32 1014.6
20260507234132 62 111 0.0 1.0 0.00 0.00 0.00 33 1014.7
20260507233630 63 128 1.0 2.0 0.00 0.00 0.00 33 1014.7
20260507233128 64 116 1.0 3.0 0.00 0.00 0.00 32 1014.7
20260507232625 64 98 0.0 2.0 0.00 0.00 0.00 34 1014.9
20260507232122 62 105 0.0 1.0 0.00 0.00 0.00 35 1014.8
20260507231618 63 140 1.0 1.0 0.00 0.00 0.00 33 1014.6
20260507231115 63 66 0.0 2.0 0.00 0.00 0.00 35 1014.9
20260507230611 64 107 2.0 2.0 0.00 0.00 0.00 33 1014.7
20260507230108 63 107 1.0 2.0 0.00 0.00 0.00 32 1014.8
20260507225602 64 89 2.0 4.0 0.00 0.00 0.00 31 1015.0
20260507225059 63 122 0.0 1.0 0.00 0.00 0.00 33 1015.0
20260507224555 62 87 3.0 4.0 0.00 0.00 0.00 33 1014.9
20260507224051 63 117 0.0 1.0 0.00 0.00 0.00 35 1014.9
20260507223548 62 107 2.0 3.0 0.00 0.00 0.00 32 1014.9
20260507223045 63 120 2.0 8.0 0.00 0.00 0.00 31 1014.6
20260507222542 63 101 1.0 8.0 0.00 0.00 0.00 34 1014.8
20260507222038 63 113 0.0 2.0 0.00 0.00 0.00 33 1014.8
20260507221534 62 108 3.0 6.0 0.00 0.00 0.00 32 1014.8
20260507221032 63 107 2.0 4.0 0.00 0.00 0.00 32 1014.8
20260507220529 63 136 4.0 4.0 0.00 0.00 0.00 31 1014.8
20260507220026 62 84 4.0 7.0 0.00 0.00 0.00 31 1014.9
20260507215522 63 91 4.0 6.0 0.00 0.00 0.00 34 1014.8
20260507215020 63 87 4.0 7.0 0.00 0.00 0.00 32 1014.8
20260507214517 63 122 4.0 6.0 0.00 0.00 0.00 34 1015.0
20260507214013 63 80 2.0 7.0 0.00 0.00 0.00 34 1014.9
20260507213509 64 57 4.0 4.0 0.00 0.00 0.00 31 1014.8
20260507213006 63 113 0.0 1.0 0.00 0.00 0.00 35 1015.0
20260507212502 63 80 3.0 6.0 0.00 0.00 0.00 34 1014.9
20260507211959 62 87 2.0 4.0 0.00 0.00 0.00 35 1014.8
20260507211455 63 98 2.0 4.0 0.00 0.00 0.00 33 1014.8
20260507210952 63 90 1.0 6.0 0.00 0.00 0.00 34 1014.9
20260507210449 63 127 3.0 6.0 0.00 0.00 0.00 33 1014.9